Location: Vihti�l�
(61.3833°N, 23.0667°E)
Time: 04:27:19
(UTC+00:00)

ARIANE 5 R/B - Pass Details

Date: 29 November 2020
Orbit: 749 x 795 km, 98.6° (Epoch: 22 January)

Event Time Altitude Azimuth Distance (km) Brightness Sun altitude
Rises 01:51:53 0° 18° (NNE) 3,273 6.2 -35.8°
Reaches altitude 10° 01:54:12 10° 20° (NNE) 2,348 5.4 -35.5°
Enters shadow 01:56:11 24° 23° (NNE) 1,585 4.4 -35.3°
